Regional Weather Roundup
Issued by NWS Bismarck, ND

Home | Current Version | Previous Version | Text Only | Print | Product List | Glossary On
Versions: 1 2 3 4 5 6 7 8 9 10 11 12 13 14 15 16 17 18 19 20 21 22 23 24 25 26 27 28 29 30 31 32 33 34 35 36 37 38 39 40 41 42 43 44 45 46 47 48 49 50
793
ASUS43 KBIS 231910
RWRBIS

NWR BROADCAST TEXT
NATIONAL WEATHER SERVICE BISMARCK ND
100 PM CST MON JAN 23 2017

NOTE: "FAIR" INDICATES FEW OR NO CLOUDS BELOW 12,000 FEET WITH NO
SIGNIFICANT WEATHER AND/OR OBSTRUCTIONS TO VISIBILITY.


CITY           SKY/WX    TMP DP  RH WIND       PRES   REMARKS
WILLISTON      CLOUDY    25  20  81 N8        29.78F WCI  16
MINOT          CLOUDY    25  19  78 W16       29.77R WCI  12
MINOT AFB      NOT AVBL
BISMARCK       CLOUDY    31  23  72 CALM      29.78F
DICKINSON      CLOUDY    23  20  88 CALM      29.72F
GARRISON         N/A     28  23  81 N7        29.76S
HETTINGER ARPT FOG       23  21  92 SE8       29.73F VSB 1   WCI  14
JAMESTOWN      CLOUDY    28  23  81 W8        29.77F WCI  20
CARRINGTON     CLOUDY    30  25  80 W13       29.78F
HAZEN          CLOUDY   N/A N/A N/A SW8       29.78F
MANDAN         CLOUDY    27  23  86 CALM      29.77F
RUGBY            N/A     23  21  93 W20       29.74F WCI   8
STANLEY        CLOUDY    21  21 100 NW15      29.76S WCI   8
TIOGA          CLOUDY    21  21 100 NW14      29.76F WCI   8
WATFORD CITY   CLOUDY    23  23 100 NE6       29.76F WCI  16
$$

CITY           SKY/WX    TMP DP  RH WIND       PRES   REMARKS
GRAND FORKS    CLOUDY    32  23  69 W14       29.78F
GRAND FORKS AF CLOUDY    31  23  70 NW12      29.78S
DEVILS LAKE    CLOUDY    26  22  84 W15       29.75F WCI  14
FARGO          CLOUDY    35  28  75 W8        29.80F
CAVALIER       FAIR      28  21  74 W17       29.75F WCI  16
GRAFTON        CLOUDY    30  25  80 W9        29.79S
GWINNER        CLOUDY    32  28  86 NW7       29.80S
ROLLA            N/A    N/A N/A N/A MISG        N/A
$$

CITY           SKY/WX    TMP DP  RH WIND       PRES   REMARKS
ABERDEEN       CLOUDY    30  23  75 S6        29.81S
MOBRIDGE       CLOUDY    29  24  82 SE7       29.74S
BUFFALO          N/A     26  20  77 NE6       29.62F WCI  19
RAPID CITY     CLOUDY    26  22  84 N7        29.62F WCI  18
GLASGOW        LGT SNOW  26  23  88 N6        29.76S FOG     WCI  19
SIDNEY         CLOUDY    26  23  88 NE7       29.77F WCI  18
WOLF POINT     LGT SNOW  28  23  81 NE8       29.78F WCI  20
GLENDIVE       CLOUDY    24  21  88 E9        29.74F WCI  14
MILES CITY     CLOUDY    22  18  85 NE6       29.73R WCI  14
BAKER          FOG       20  18  92 SE10      29.69F VSB 1   WCI   9
$$

CITY           SKY/WX    TMP DP  RH WIND       PRES   REMARKS
BILLINGS       CLOUDY    21  19  92 CALM      29.69F FOG
GREAT FALLS    FLURRIES  22  19  89 N8        29.76F WCI  12
REGINA         CLOUDY    19  16  86 W15       29.75F WCI   5
ESTEVAN        CLOUDY    21  18  86 W15       29.75F WCI   8
$$





USA.gov is the U.S. government's official web portal to all federal, state and local government web resources and services.